Regional Weather Roundup
Issued by NWS

Home | Current Version | Previous Version | Graphics & Text | Print | Product List | Glossary On
Versions: 1 2 3 4 5 6 7 8 9 10 11 12 13 14 15 16 17 18 19 20 21 22 23 24 25 26 27 28 29 30 31 32 33 34 35 36 37 38 39 40 41 42 43 44 45 46 47 48 49 50
000
ASUS43 KDMX 202207
RWRIA

WEATHER ROUNDUP FOR IOWA
NATIONAL WEATHER SERVICE DES MOINES IA
400 PM CST SAT DEC 20 2014

NOTE: "FAIR" INDICATES FEW OR NO CLOUDS BELOW 12,000 FEET WITH NO
SIGNIFICANT WEATHER AND/OR OBSTRUCTIONS TO VISIBILITY.

* - THESE STATIONS ARE NOT NWS STATIONS...THUS NOT UNDER NWS
QUALITY CONTROL.  THEY ALSO DO NOT REPORT WEATHER SUCH
AS PRECIPITATION OR FOG.

IAZ001>003-012>014-020>022-031>034-043>046-202300-
   NORTHWEST IOWA

CITY           SKY/WX    TMP DP  RH WIND       PRES   REMARKS
CARROLL *      CLOUDY    34  32  93 S8        30.08S WCI  27
CHEROKEE *     CLOUDY    32  32 100 S8        30.06S WCI  25
DENISON *      CLOUDY    32  32 100 S7G16     30.06R FOG     WCI  26
LE MARS *      CLOUDY    32  30  93 S12       30.05S WCI  23
ORANGE CITY *  CLOUDY    34  28  80 S9        30.04R FOG     WCI  26
SHELDON *      CLOUDY    30  32 100 S13       30.04R FOG     WCI  20
SIOUX CITY     CLOUDY    33  30  88 S12       30.06R WCI  24
SPENCER        CLOUDY    32  28  85 S12       30.06R WCI  23
STORM LAKE *   CLOUDY    32  32 100 S10       30.07R WCI  24
$$

IAZ055>058-069>071-079>083-090>094-202300-
   SOUTHWEST IOWA

CITY           SKY/WX    TMP DP  RH WIND       PRES   REMARKS
ATLANTIC *     CLOUDY    34  32  93 S7        30.08S WCI  28
AUDUBON *      CLEAR     34  28  80 S7        30.09S WCI  28
CLARINDA *     CLOUDY    34  34 100 S8        30.12R WCI  27
COUNCIL BLFS * CLOUDY    32  32 100 S8        30.06R FOG     WCI  25
CRESTON *      CLOUDY    34  34 100 S8        30.10R FOG     WCI  27
HARLAN  *      CLOUDY    34  34 100 S7        30.11R FOG     WCI  28
LAMONI         CLOUDY    35  34  96 S6        30.12R FOG     WCI  30
RED OAK *      CLOUDY    34  34 100 SE7       30.10R FOG     WCI  28
SHENANDOAH *   CLOUDY    36  34  93 S6        30.11R FOG     WCI  31
$$

IAZ047>049-059>061-072>074-084-202300-
   CENTRAL IOWA

CITY           SKY/WX    TMP DP  RH WIND       PRES   REMARKS
AMES           CLOUDY    33  31  92 SE5       30.13R FOG     WCI  29
ANKENY *       CLOUDY    34  34 100 SE6       30.13S FOG     WCI  29
CHARITON *     CLOUDY    36  34  93 S8        30.13R FOG     WCI  29
DES MOINES     CLOUDY    36  33  89 S7        30.13R FOG     WCI  30
GRINNELL*      CLOUDY    34  32  93 SE6       30.14S FOG     WCI  29
KNOXVILLE *    CLOUDY    36  34  93 SE6       30.12S FOG     WCI  31
MARSHALLTOWN   CLOUDY    33  31  92 SE6       30.13S FOG     WCI  28
PELLA *        CLOUDY    34  34 100 SE5       30.15S FOG     WCI  30
PERRY *        CLOUDY    34  34 100 SE7       30.11R FOG     WCI  28
$$

IAZ004>006-015-016-023>025-035-036-202300-
   NORTH CENTRAL IOWA

CITY           SKY/WX    TMP DP  RH WIND       PRES   REMARKS
ALGONA *       CLOUDY    32  32 100 S8        30.09S FOG     WCI  25
CLARION *      CLOUDY    32  32 100 SE12      30.10F FOG     WCI  23
ESTHERVILLE    CLOUDY    31  28  89 S12       30.07R WCI  22
FORT DODGE *   CLOUDY    32  28  86 SE6       30.11S WCI  26
MASON CITY     CLOUDY    30  27  88 SE6       30.13R WCI  24
FOREST CITY *  CLOUDY    32  28  86 SE7       30.10R WCI  26
IOWA FALLS *   CLOUDY    32  28  86 SE7       30.13R WCI  26
$$

IAZ007>011-017>019-026>030-037>042-050>054-066-202300-
   NORTHEAST IOWA

CITY           SKY/WX    TMP DP  RH WIND       PRES   REMARKS
CEDAR RAPIDS   FOG       31  31 100 SE6       30.16R VSB 3/4 WCI  25
CHARLES CITY * CLOUDY    32  32 100 S9        30.14S FOG     WCI  24
CLINTON *      CLOUDY    32  25  74 SE9       30.23R WCI  24
DECORAH *      CLOUDY    30  30 100 SE6       30.15R FOG     WCI  24
DUBUQUE        CLOUDY    30  26  85 S9        30.18S FOG     WCI  22
MONTICELLO *   CLOUDY    32  32 100 SE8       30.18S FOG     WCI  25
OELWEIN *      CLOUDY    32  30  93 S7        30.16R FOG     WCI  26
WATERLOO       CLOUDY    32  31  96 SE6       30.15S FOG     WCI  26
$$

IAZ064-065-067-068-078-202300-
   EAST CENTRAL IOWA

CITY           SKY/WX    TMP DP  RH WIND       PRES   REMARKS
DAVENPORT      CLOUDY    33  26  75 SE9       30.20S HAZE    WCI  25
IOWA CITY      CLOUDY    33  31  92 SE6       30.20R FOG     WCI  28
MT. PLEASANT * CLOUDY    34  34 100 SE6       30.19R FOG     WCI  29
MUSCATINE *    CLOUDY    34  30  86 S7        30.21R FOG     WCI  28
QUAD CITIES    CLOUDY    34  27  75 SE6       30.20S HAZE    WCI  29
$$

IAZ062-063-075>077-085>089-095>099-202300-
   SOUTHEAST IOWA

CITY           SKY/WX    TMP DP  RH WIND       PRES   REMARKS
BURLINGTON     CLOUDY    35  33  92 SE5       30.19R FOG     WCI  31
FAIRFIELD *    CLOUDY    34  32  93 SE6       30.17R FOG     WCI  29
FORT MADISON * CLOUDY    37  36  93 SE6       30.20R FOG     WCI  33
KEOKUK *       CLOUDY    36  36 100 SE6       30.18S FOG     WCI  31
OSKALOOSA *    FOG       34  34 100 SE6       30.15S VSB 3/4 WCI  29
CENTERVILLE *  CLOUDY    36  36 100 S6        30.15R FOG     WCI  31
OTTUMWA        CLOUDY    35  33  92 SE5       30.15R FOG     WCI  31
WASHINGTON *   CLOUDY    34  34 100 SE6       30.18R FOG     WCI  29
$$

ABBREVIATIONS USED IN REMARKS
   TC - TEMPERATURES IN CELSIUS
  WCI - WIND CHILL INDEX
   HX - HEAT INDEX
  VSB - VISIBILITY
$$



USA.gov is the U.S. government's official web portal to all federal, state and local government web resources and services.